Time,TemperatureF,DewpointF,PressureIn,WindDirection,WindDirectionDegrees,WindSpeedMPH,WindSpeedGustMPH,Humidity,HourlyPrecipIn,Conditions,Clouds,dailyrainin,SoftwareType,DateUTC
2013-07-13 06:15:00,71.7,65.6,29.89,SSE,161,0.0,15.0,81,0.00,CLR,,0.00,WeatherDisplay:10.37,2013-07-13 11:15:00,
2013-07-13 06:20:00,71.7,65.6,29.89,SSE,161,0.0,0.0,81,0.00,CLR,,0.00,WeatherDisplay:10.37,2013-07-13 11:20:00,
2013-07-13 06:25:00,71.6,65.5,29.89,SSE,161,0.0,0.0,81,0.00,CLR,,0.00,WeatherDisplay:10.37,2013-07-13 11:25:00,
2013-07-13 06:30:00,71.5,65.7,29.89,SSE,161,0.0,1.0,82,0.00,CLR,,0.00,WeatherDisplay:10.37,2013-07-13 11:30:00,
2013-07-13 06:35:00,71.5,65.7,29.89,SSE,161,0.0,0.0,82,0.00,CLR,,0.00,WeatherDisplay:10.37,2013-07-13 11:35:00,
2013-07-13 06:40:00,71.4,66.0,29.89,SSE,161,0.0,0.0,83,0.00,CLR,,0.00,WeatherDisplay:10.37,2013-07-13 11:40:00,
2013-07-13 06:45:00,71.4,66.0,29.89,SSE,161,0.0,0.0,83,0.00,CLR,,0.00,WeatherDisplay:10.37,2013-07-13 11:45:00,
2013-07-13 06:50:00,71.4,66.0,29.90,SSE,161,0.0,0.0,83,0.00,CLR,,0.00,WeatherDisplay:10.37,2013-07-13 11:50:00,
2013-07-13 06:55:00,71.4,66.0,29.90,SSE,161,0.0,0.0,83,0.00,CLR,,0.00,WeatherDisplay:10.37,2013-07-13 11:55:00,
2013-07-13 07:00:00,71.4,66.0,29.90,SSE,161,0.0,0.0,83,0.00,CLR,,0.00,WeatherDisplay:10.37,2013-07-13 12:00:00,
2013-07-13 07:05:00,71.4,66.0,29.90,SSE,161,0.0,1.0,83,0.00,CLR,,0.00,WeatherDisplay:10.37,2013-07-13 12:05:00,
2013-07-13 07:10:00,71.5,66.1,29.90,SSE,161,0.0,0.0,83,0.00,CLR,,0.00,WeatherDisplay:10.37,2013-07-13 12:10:00,
2013-07-13 07:15:00,71.6,66.2,29.90,SSE,161,0.0,0.0,83,0.00,CLR,,0.00,WeatherDisplay:10.37,2013-07-13 12:15:00,
2013-07-13 07:20:00,71.7,66.3,29.90,SSE,161,0.0,0.0,83,0.00,CLR,,0.00,WeatherDisplay:10.37,2013-07-13 12:20:00,
2013-07-13 07:25:00,71.9,66.5,29.90,SSE,161,0.0,0.0,83,0.00,CLR,,0.00,WeatherDisplay:10.37,2013-07-13 12:25:00,
2013-07-13 07:30:00,72.1,66.6,29.90,SSE,161,0.0,0.0,83,0.00,CLR,,0.00,WeatherDisplay:10.37,2013-07-13 12:30:00,
2013-07-13 07:35:00,72.4,66.6,29.90,SSE,161,0.0,0.0,82,0.00,CLR,,0.00,WeatherDisplay:10.37,2013-07-13 12:35:00,
2013-07-13 07:40:00,72.8,67.0,29.90,SSE,161,0.0,1.0,82,0.00,CLR,,0.00,WeatherDisplay:10.37,2013-07-13 12:40:00,
2013-07-13 07:45:00,73.2,67.0,29.91,SSE,161,0.0,2.0,81,0.00,CLR,,0.00,WeatherDisplay:10.37,2013-07-13 12:45:00,
2013-07-13 07:55:00,74.0,67.4,29.91,SSE,161,0.0,3.0,80,0.00,CLR,,0.00,WeatherDisplay:10.37,2013-07-13 12:55:00,
2013-07-13 08:00:00,74.5,67.5,29.91,SSE,161,0.0,3.0,79,0.00,CLR,,0.00,WeatherDisplay:10.37,2013-07-13 13:00:00,
2013-07-13 08:04:00,74.9,67.9,29.91,SSE,161,0.0,3.0,79,0.00,CLR,,0.00,WeatherDisplay:10.37,2013-07-13 13:04:00,
2013-07-13 08:10:00,75.2,67.9,29.91,SSE,161,0.0,3.0,78,0.00,CLR,,0.00,WeatherDisplay:10.37,2013-07-13 13:10:00,
2013-07-13 08:14:00,75.7,68.0,29.91,SSE,161,0.0,0.0,77,0.00,CLR,,0.00,WeatherDisplay:10.37,2013-07-13 13:14:00,
2013-07-13 08:20:00,76.2,68.4,29.91,SSE,161,0.0,0.0,77,0.00,CLR,,0.00,WeatherDisplay:10.37,2013-07-13 13:20:00,
2013-07-13 08:24:00,76.6,68.8,29.91,SSE,161,0.0,2.0,77,0.00,CLR,,0.00,WeatherDisplay:10.37,2013-07-13 13:24:00,
2013-07-13 08:30:00,77.3,69.5,29.91,SSE,161,1.0,3.0,77,0.00,CLR,,0.00,WeatherDisplay:10.37,2013-07-13 13:30:00,
2013-07-13 08:35:00,77.7,69.5,29.91,SSE,161,0.0,2.0,76,0.00,CLR,,0.00,WeatherDisplay:10.37,2013-07-13 13:35:00,
2013-07-13 08:40:00,78.2,69.6,29.91,SSE,161,2.0,5.0,75,0.00,CLR,,0.00,WeatherDisplay:10.37,2013-07-13 13:40:00,
2013-07-13 08:45:00,78.7,69.8,29.91,SSE,168,2.0,7.0,74,0.00,CLR,,0.00,WeatherDisplay:10.37,2013-07-13 13:45:00,
2013-07-13 08:50:00,79.1,69.7,29.91,South,179,1.0,6.0,73,0.00,CLR,,0.00,WeatherDisplay:10.37,2013-07-13 13:50:00,
2013-07-13 08:54:00,79.6,70.2,29.91,SSW,193,0.0,6.0,73,0.00,CLR,,0.00,WeatherDisplay:10.37,2013-07-13 13:54:00,
2013-07-13 09:00:00,79.9,69.7,29.91,SSW,201,1.0,5.0,71,0.00,CLR,,0.00,WeatherDisplay:10.37,2013-07-13 14:00:00,
2013-07-13 09:05:00,80.2,69.9,29.91,SSW,205,3.0,7.0,71,0.00,CLR,,0.00,WeatherDisplay:10.37,2013-07-13 14:05:00,
2013-07-13 09:10:00,80.5,70.2,29.91,SSW,206,0.0,5.0,71,0.00,CLR,,0.00,WeatherDisplay:10.37,2013-07-13 14:10:00,
2013-07-13 09:15:00,80.9,70.1,29.91,SSW,208,1.0,7.0,70,0.00,CLR,,0.00,WeatherDisplay:10.37,2013-07-13 14:15:00,
2013-07-13 09:20:00,81.2,70.0,29.92,SSW,210,1.0,5.0,69,0.00,CLR,,0.00,WeatherDisplay:10.37,2013-07-13 14:20:00,
2013-07-13 09:24:00,81.6,70.0,29.92,SSW,211,1.0,3.0,68,0.00,CLR,,0.00,WeatherDisplay:10.37,2013-07-13 14:24:00,
2013-07-13 09:30:00,82.0,69.1,29.92,SSW,212,2.0,4.0,65,0.00,CLR,,0.00,WeatherDisplay:10.37,2013-07-13 14:30:00,
2013-07-13 09:35:00,82.5,69.5,29.92,SSW,213,0.0,4.0,65,0.00,CLR,,0.00,WeatherDisplay:10.37,2013-07-13 14:35:00,
2013-07-13 09:40:00,82.9,69.5,29.92,SSW,213,0.0,0.0,64,0.00,CLR,,0.00,WeatherDisplay:10.37,2013-07-13 14:40:00,
2013-07-13 09:45:00,83.6,68.7,29.92,SSW,213,0.0,0.0,61,0.00,CLR,,0.00,WeatherDisplay:10.37,2013-07-13 14:45:00,
2013-07-13 09:49:00,84.2,68.3,29.92,SSW,213,0.0,1.0,59,0.00,CLR,,0.00,WeatherDisplay:10.37,2013-07-13 14:49:00,
2013-07-13 09:54:00,84.8,67.9,29.92,SW,214,3.0,5.0,57,0.00,CLR,,0.00,WeatherDisplay:10.37,2013-07-13 14:54:00,
2013-07-13 09:59:00,85.2,67.7,29.92,SW,214,0.0,3.0,56,0.00,CLR,,0.00,WeatherDisplay:10.37,2013-07-13 14:59:00,
2013-07-13 10:05:00,85.6,67.6,29.92,SW,215,0.0,0.0,55,0.00,CLR,,0.00,WeatherDisplay:10.37,2013-07-13 15:05:00,
2013-07-13 10:09:00,86.0,67.4,29.92,SW,215,0.0,0.0,54,0.00,CLR,,0.00,WeatherDisplay:10.37,2013-07-13 15:09:00,
2013-07-13 10:14:00,86.7,67.5,29.92,SW,215,2.0,4.0,53,0.00,CLR,,0.00,WeatherDisplay:10.37,2013-07-13 15:14:00,
2013-07-13 10:20:00,87.2,67.4,29.92,SW,214,0.0,5.0,52,0.00,CLR,,0.00,WeatherDisplay:10.37,2013-07-13 15:20:00,
2013-07-13 10:24:00,87.6,67.2,29.92,SW,214,2.0,4.0,51,0.00,CLR,,0.00,WeatherDisplay:10.37,2013-07-13 15:24:00,
2013-07-13 10:29:00,88.1,67.1,29.92,SSW,212,1.0,5.0,50,0.00,CLR,,0.00,WeatherDisplay:10.37,2013-07-13 15:29:00,
2013-07-13 10:35:00,88.4,66.8,29.92,SSW,211,0.0,4.0,49,0.00,CLR,,0.00,WeatherDisplay:10.37,2013-07-13 15:35:00,
2013-07-13 10:40:00,88.7,66.4,29.92,SSW,204,1.0,4.0,48,0.00,CLR,,0.00,WeatherDisplay:10.37,2013-07-13 15:40:00,
2013-07-13 10:45:00,88.9,67.2,29.92,SSW,197,0.0,5.0,49,0.00,CLR,,0.00,WeatherDisplay:10.37,2013-07-13 15:45:00,
2013-07-13 10:50:00,89.1,67.5,29.91,South,191,0.0,0.0,49,0.00,CLR,,0.00,WeatherDisplay:10.37,2013-07-13 15:50:00,
2013-07-13 10:55:00,89.5,66.6,29.92,South,189,2.0,5.0,47,0.00,CLR,,0.00,WeatherDisplay:10.37,2013-07-13 15:55:00,
2013-07-13 11:00:00,89.8,66.3,29.92,South,169,1.0,10.0,46,0.00,CLR,,0.00,WeatherDisplay:10.37,2013-07-13 16:00:00,
2013-07-13 11:05:00,90.2,66.0,29.92,SSE,164,1.0,7.0,45,0.00,CLR,,0.00,WeatherDisplay:10.37,2013-07-13 16:05:00,
2013-07-13 11:10:00,90.5,65.6,29.92,SSE,155,5.0,9.0,44,0.00,CLR,,0.00,WeatherDisplay:10.37,2013-07-13 16:10:00,
2013-07-13 11:15:00,90.6,65.0,29.92,SE,136,2.0,10.0,43,0.00,CLR,,0.00,WeatherDisplay:10.37,2013-07-13 16:15:00,
2013-07-13 11:25:00,90.9,65.3,29.92,ESE,114,5.0,7.0,43,0.00,CLR,,0.00,WeatherDisplay:10.37,2013-07-13 16:25:00,
2013-07-13 11:30:00,90.9,66.0,29.92,ESE,112,1.0,9.0,44,0.00,CLR,,0.00,WeatherDisplay:10.37,2013-07-13 16:30:00,
2013-07-13 11:35:00,91.3,65.0,29.92,ESE,114,5.0,12.0,42,0.00,CLR,,0.00,WeatherDisplay:10.37,2013-07-13 16:35:00,
2013-07-13 11:40:00,91.6,64.6,29.91,ESE,112,5.0,12.0,41,0.00,CLR,,0.00,WeatherDisplay:10.37,2013-07-13 16:40:00,
2013-07-13 11:45:00,91.5,65.2,29.91,ESE,112,3.0,8.0,42,0.00,CLR,,0.00,WeatherDisplay:10.37,2013-07-13 16:45:00,
2013-07-13 11:50:00,91.4,65.7,29.91,ESE,120,5.0,8.0,43,0.00,CLR,,0.00,WeatherDisplay:10.37,2013-07-13 16:50:00,
2013-07-13 11:55:00,91.6,65.9,29.91,SE,134,2.0,10.0,43,0.00,CLR,,0.00,WeatherDisplay:10.37,2013-07-13 16:55:00,
2013-07-13 12:00:00,92.0,65.6,29.91,SSE,148,2.0,9.0,42,0.00,CLR,,0.00,WeatherDisplay:10.37,2013-07-13 17:00:00,
2013-07-13 12:05:00,92.2,65.8,29.91,SE,144,3.0,10.0,42,0.00,CLR,,0.00,WeatherDisplay:10.37,2013-07-13 17:05:00,
2013-07-13 12:10:00,92.4,65.3,29.91,SE,142,6.0,12.0,41,0.00,CLR,,0.00,WeatherDisplay:10.37,2013-07-13 17:10:00,
2013-07-13 12:15:00,92.6,65.5,29.90,SSE,153,6.0,10.0,41,0.00,CLR,,0.00,WeatherDisplay:10.37,2013-07-13 17:15:00,
2013-07-13 12:20:00,92.6,64.8,29.91,SSE,150,10.0,15.0,40,0.00,CLR,,0.00,WeatherDisplay:10.37,2013-07-13 17:20:00,
2013-07-13 12:25:00,92.5,66.1,29.91,SE,131,6.0,10.0,42,0.00,CLR,,0.00,WeatherDisplay:10.37,2013-07-13 17:25:00,
2013-07-13 12:30:00,92.3,65.9,29.90,SE,131,7.0,13.0,42,0.00,CLR,,0.00,WeatherDisplay:10.37,2013-07-13 17:30:00,
2013-07-13 12:35:00,92.4,66.0,29.90,SSE,148,3.0,16.0,42,0.00,CLR,,0.00,WeatherDisplay:10.37,2013-07-13 17:35:00,
2013-07-13 12:40:00,92.8,66.3,29.90,SE,142,7.0,12.0,42,0.00,CLR,,0.00,WeatherDisplay:10.37,2013-07-13 17:40:00,
2013-07-13 12:45:00,92.9,65.7,29.90,SSE,159,2.0,12.0,41,0.00,CLR,,0.00,WeatherDisplay:10.37,2013-07-13 17:45:00,
2013-07-13 12:50:00,92.9,66.4,29.90,SSE,162,5.0,13.0,42,0.00,CLR,,0.00,WeatherDisplay:10.37,2013-07-13 17:50:00,
2013-07-13 12:55:00,93.2,66.0,29.90,SE,130,3.0,12.0,41,0.00,CLR,,0.00,WeatherDisplay:10.37,2013-07-13 17:55:00,
2013-07-13 13:00:00,93.1,65.2,29.89,ESE,113,0.0,10.0,40,0.00,CLR,,0.00,WeatherDisplay:10.37,2013-07-13 18:00:00,
2013-07-13 13:05:00,93.0,65.8,29.89,SE,135,5.0,12.0,41,0.00,CLR,,0.00,WeatherDisplay:10.37,2013-07-13 18:05:00,
2013-07-13 13:10:00,92.9,65.7,29.89,SE,140,0.0,7.0,41,0.00,CLR,,0.00,WeatherDisplay:10.37,2013-07-13 18:10:00,
2013-07-13 13:15:00,93.1,65.2,29.89,SSE,163,8.0,14.0,40,0.00,CLR,,0.00,WeatherDisplay:10.37,2013-07-13 18:15:00,
2013-07-13 13:20:00,93.2,64.6,29.88,South,180,3.0,13.0,39,0.00,CLR,,0.00,WeatherDisplay:10.37,2013-07-13 18:20:00,
2013-07-13 13:25:00,93.4,64.7,29.89,South,171,6.0,14.0,39,0.00,CLR,,0.00,WeatherDisplay:10.37,2013-07-13 18:25:00,
2013-07-13 13:30:00,93.4,64.7,29.88,SSE,156,0.0,14.0,39,0.00,CLR,,0.00,WeatherDisplay:10.37,2013-07-13 18:30:00,
2013-07-13 13:35:00,93.7,65.0,29.88,SSE,149,6.0,12.0,39,0.00,CLR,,0.00,WeatherDisplay:10.37,2013-07-13 18:35:00,
2013-07-13 13:40:00,93.9,65.2,29.88,SE,129,3.0,12.0,39,0.00,CLR,,0.00,WeatherDisplay:10.37,2013-07-13 18:40:00,
2013-07-13 13:45:00,94.4,64.9,29.88,SE,144,1.0,6.0,38,0.00,CLR,,0.00,WeatherDisplay:10.37,2013-07-13 18:45:00,
2013-07-13 13:50:00,94.7,64.4,29.88,SSE,153,5.0,10.0,37,0.00,CLR,,0.00,WeatherDisplay:10.37,2013-07-13 18:50:00,
2013-07-13 13:55:00,94.8,65.2,29.87,SE,133,0.0,6.0,38,0.00,CLR,,0.00,WeatherDisplay:10.37,2013-07-13 18:55:00,
2013-07-13 14:00:00,94.7,65.2,29.87,SE,146,6.0,13.0,38,0.00,CLR,,0.00,WeatherDisplay:10.37,2013-07-13 19:00:00,
2013-07-13 14:05:00,94.6,65.1,29.87,SSE,150,5.0,10.0,38,0.00,CLR,,0.00,WeatherDisplay:10.37,2013-07-13 19:05:00,
2013-07-13 14:15:00,94.9,65.3,29.86,SSE,152,2.0,5.0,38,0.00,CLR,,0.00,WeatherDisplay:10.37,2013-07-13 19:15:00,
2013-07-13 14:20:00,95.1,64.7,29.86,SSE,148,1.0,4.0,37,0.00,CLR,,0.00,WeatherDisplay:10.37,2013-07-13 19:20:00,
2013-07-13 14:25:00,95.2,64.8,29.86,SE,146,1.0,3.0,37,0.00,CLR,,0.00,WeatherDisplay:10.37,2013-07-13 19:25:00,
2013-07-13 14:30:00,95.3,64.9,29.85,SSE,167,5.0,10.0,37,0.00,CLR,,0.00,WeatherDisplay:10.37,2013-07-13 19:30:00,
2013-07-13 14:35:00,95.8,64.6,29.85,SSE,155,5.0,13.0,36,0.00,CLR,,0.00,WeatherDisplay:10.37,2013-07-13 19:35:00,
2013-07-13 14:40:00,96.1,64.8,29.85,SE,136,7.0,12.0,36,0.00,CLR,,0.00,WeatherDisplay:10.37,2013-07-13 19:40:00,
2013-07-13 14:45:00,95.6,63.6,29.85,SE,125,0.0,9.0,35,0.00,CLR,,0.00,WeatherDisplay:10.37,2013-07-13 19:45:00,
2013-07-13 14:50:00,95.7,63.7,29.85,SE,135,0.0,7.0,35,0.00,CLR,,0.00,WeatherDisplay:10.37,2013-07-13 19:50:00,
2013-07-13 14:55:00,95.9,62.2,29.85,SE,146,0.0,3.0,33,0.00,CLR,,0.00,WeatherDisplay:10.37,2013-07-13 19:55:00,
2013-07-13 15:00:00,96.2,62.4,29.84,ESE,105,1.0,5.0,33,0.00,CLR,,0.00,WeatherDisplay:10.37,2013-07-13 20:00:00,
2013-07-13 15:05:00,96.3,62.5,29.84,ENE,63,0.0,4.0,33,0.00,CLR,,0.00,WeatherDisplay:10.37,2013-07-13 20:05:00,
2013-07-13 15:10:00,96.6,63.7,29.84,NE,52,1.0,3.0,34,0.00,CLR,,0.00,WeatherDisplay:10.37,2013-07-13 20:10:00,
2013-07-13 15:15:00,96.4,62.6,29.84,NE,56,1.0,7.0,33,0.00,CLR,,0.00,WeatherDisplay:10.37,2013-07-13 20:15:00,
2013-07-13 15:20:00,95.9,60.4,29.84,ENE,72,3.0,9.0,31,0.00,CLR,,0.00,WeatherDisplay:10.37,2013-07-13 20:20:00,
2013-07-13 15:25:00,96.0,61.4,29.84,SE,132,8.0,13.0,32,0.00,CLR,,0.00,WeatherDisplay:10.37,2013-07-13 20:25:00,
2013-07-13 15:30:00,96.4,61.8,29.84,SSE,148,1.0,12.0,32,0.00,CLR,,0.00,WeatherDisplay:10.37,2013-07-13 20:30:00,
2013-07-13 15:35:00,96.9,61.3,29.84,SE,146,0.0,5.0,31,0.00,CLR,,0.00,WeatherDisplay:10.37,2013-07-13 20:35:00,
2013-07-13 15:40:00,97.1,58.6,29.84,East,82,2.0,14.0,28,0.00,CLR,,0.00,WeatherDisplay:10.37,2013-07-13 20:40:00,
2013-07-13 15:45:00,97.3,58.7,29.84,NE,51,0.0,5.0,28,0.00,CLR,,0.00,WeatherDisplay:10.37,2013-07-13 20:45:00,
2013-07-13 15:50:00,98.1,62.3,29.84,ESE,107,6.0,13.0,31,0.00,CLR,,0.00,WeatherDisplay:10.37,2013-07-13 20:50:00,
2013-07-13 15:55:00,97.8,61.1,29.84,SE,124,7.0,12.0,30,0.00,CLR,,0.00,WeatherDisplay:10.37,2013-07-13 20:55:00,
2013-07-13 16:00:00,97.7,61.0,29.83,SE,136,7.0,16.0,30,0.00,CLR,,0.00,WeatherDisplay:10.37,2013-07-13 21:00:00,
2013-07-13 16:05:00,98.0,61.3,29.83,SE,144,5.0,9.0,30,0.00,CLR,,0.00,WeatherDisplay:10.37,2013-07-13 21:05:00,
2013-07-13 16:10:00,98.3,59.6,29.83,SE,124,1.0,14.0,28,0.00,CLR,,0.00,WeatherDisplay:10.37,2013-07-13 21:10:00,
2013-07-13 16:15:00,98.5,59.8,29.83,ESE,117,2.0,9.0,28,0.00,CLR,,0.00,WeatherDisplay:10.37,2013-07-13 21:15:00,
2013-07-13 16:20:00,98.7,58.9,29.83,ESE,116,5.0,9.0,27,0.00,CLR,,0.00,WeatherDisplay:10.37,2013-07-13 21:20:00,
2013-07-13 16:25:00,98.4,58.7,29.82,ESE,106,3.0,10.0,27,0.00,CLR,,0.00,WeatherDisplay:10.37,2013-07-13 21:25:00,
2013-07-13 16:30:00,98.4,59.7,29.82,ESE,106,1.0,5.0,28,0.00,CLR,,0.00,WeatherDisplay:10.37,2013-07-13 21:30:00,
2013-07-13 16:35:00,98.6,60.8,29.82,SE,144,5.0,12.0,29,0.00,CLR,,0.00,WeatherDisplay:10.37,2013-07-13 21:35:00,
2013-07-13 16:40:00,98.4,59.7,29.82,SE,141,5.0,13.0,28,0.00,CLR,,0.00,WeatherDisplay:10.37,2013-07-13 21:40:00,
2013-07-13 16:45:00,98.4,59.7,29.82,SE,127,3.0,10.0,28,0.00,CLR,,0.00,WeatherDisplay:10.37,2013-07-13 21:45:00,
2013-07-13 16:50:00,98.4,58.7,29.82,SE,136,5.0,10.0,27,0.00,CLR,,0.00,WeatherDisplay:10.37,2013-07-13 21:50:00,
2013-07-13 16:55:00,98.2,58.5,29.82,SE,137,2.0,12.0,27,0.00,CLR,,0.00,WeatherDisplay:10.37,2013-07-13 21:55:00,
2013-07-13 17:00:00,98.2,57.5,29.82,SE,130,3.0,12.0,26,0.00,CLR,,0.00,WeatherDisplay:10.37,2013-07-13 22:00:00,
2013-07-13 17:05:00,98.2,59.5,29.81,SE,128,0.0,5.0,28,0.00,CLR,,0.00,WeatherDisplay:10.37,2013-07-13 22:05:00,
2013-07-13 17:10:00,98.6,59.9,29.81,SE,135,1.0,9.0,28,0.00,CLR,,0.00,WeatherDisplay:10.37,2013-07-13 22:10:00,
2013-07-13 17:15:00,98.7,58.9,29.81,ESE,120,1.0,7.0,27,0.00,CLR,,0.00,WeatherDisplay:10.37,2013-07-13 22:15:00,
2013-07-13 17:20:00,98.5,58.8,29.80,East,100,6.0,10.0,27,0.00,CLR,,0.00,WeatherDisplay:10.37,2013-07-13 22:20:00,
2013-07-13 17:25:00,98.3,58.6,29.80,SSE,153,5.0,14.0,27,0.00,CLR,,0.00,WeatherDisplay:10.37,2013-07-13 22:25:00,
2013-07-13 17:30:00,98.3,59.6,29.80,SSE,167,1.0,9.0,28,0.00,CLR,,0.00,WeatherDisplay:10.37,2013-07-13 22:30:00,
2013-07-13 17:35:00,98.5,58.8,29.80,South,169,9.0,15.0,27,0.00,CLR,,0.00,WeatherDisplay:10.37,2013-07-13 22:35:00,
2013-07-13 17:40:00,98.5,58.8,29.80,South,177,9.0,17.0,27,0.00,CLR,,0.00,WeatherDisplay:10.37,2013-07-13 22:40:00,
2013-07-13 17:45:00,98.5,58.8,29.80,South,170,5.0,10.0,27,0.00,CLR,,0.00,WeatherDisplay:10.37,2013-07-13 22:45:00,
2013-07-13 17:50:00,98.6,57.8,29.80,SSE,147,7.0,13.0,26,0.00,CLR,,0.00,WeatherDisplay:10.37,2013-07-13 22:50:00,
2013-07-13 18:00:00,98.6,58.8,29.80,SE,135,3.0,8.0,27,0.00,CLR,,0.00,WeatherDisplay:10.37,2013-07-13 23:00:00,
2013-07-13 18:05:00,98.7,57.9,29.79,SSE,153,1.0,12.0,26,0.00,CLR,,0.00,WeatherDisplay:10.37,2013-07-13 23:05:00,
2013-07-13 18:10:00,98.8,58.0,29.79,SSE,159,1.0,13.0,26,0.00,CLR,,0.00,WeatherDisplay:10.37,2013-07-13 23:10:00,
2013-07-13 18:15:00,98.7,58.9,29.79,SE,146,3.0,9.0,27,0.00,CLR,,0.00,WeatherDisplay:10.37,2013-07-13 23:15:00,
2013-07-13 18:20:00,98.7,57.9,29.79,SSE,148,3.0,8.0,26,0.00,CLR,,0.00,WeatherDisplay:10.37,2013-07-13 23:20:00,
2013-07-13 18:25:00,98.7,57.9,29.79,SSE,153,0.0,3.0,26,0.00,CLR,,0.00,WeatherDisplay:10.37,2013-07-13 23:25:00,
2013-07-13 18:30:00,98.8,59.0,29.78,SSE,152,3.0,9.0,27,0.00,CLR,,0.00,WeatherDisplay:10.37,2013-07-13 23:30:00,
2013-07-13 18:35:00,98.7,58.9,29.79,SE,139,1.0,7.0,27,0.00,CLR,,0.00,WeatherDisplay:10.37,2013-07-13 23:35:00,
2013-07-13 18:40:00,98.6,58.8,29.79,SE,135,5.0,12.0,27,0.00,CLR,,0.00,WeatherDisplay:10.37,2013-07-13 23:40:00,
2013-07-13 18:45:00,98.3,57.5,29.78,SE,134,5.0,12.0,26,0.00,CLR,,0.00,WeatherDisplay:10.37,2013-07-13 23:45:00,
2013-07-13 18:50:00,98.3,57.5,29.78,SE,138,6.0,10.0,26,0.00,CLR,,0.00,WeatherDisplay:10.37,2013-07-13 23:50:00,
2013-07-13 18:55:00,98.2,57.4,29.78,SSE,149,5.0,7.0,26,0.00,CLR,,0.00,WeatherDisplay:10.37,2013-07-13 23:55:00,
2013-07-13 19:00:00,98.1,58.4,29.78,SSE,159,1.0,5.0,27,0.00,CLR,,0.00,WeatherDisplay:10.37,2013-07-14 00:00:00,
2013-07-13 19:05:00,98.0,57.3,29.78,SSE,156,2.0,6.0,26,0.00,CLR,,0.00,WeatherDisplay:10.37,2013-07-14 00:05:00,
2013-07-13 19:10:00,97.9,57.2,29.78,SSE,153,0.0,5.0,26,0.00,CLR,,0.00,WeatherDisplay:10.37,2013-07-14 00:10:00,
2013-07-13 19:15:00,97.8,57.1,29.78,SSE,149,1.0,5.0,26,0.00,CLR,,0.00,WeatherDisplay:10.37,2013-07-14 00:15:00,
2013-07-13 19:20:00,97.7,57.0,29.78,SSE,148,0.0,3.0,26,0.00,CLR,,0.00,WeatherDisplay:10.37,2013-07-14 00:20:00,
2013-07-13 19:25:00,97.7,58.1,29.78,SSE,148,2.0,6.0,27,0.00,CLR,,0.00,WeatherDisplay:10.37,2013-07-14 00:25:00,
2013-07-13 19:30:00,97.7,58.1,29.78,SSE,148,1.0,5.0,27,0.00,CLR,,0.00,WeatherDisplay:10.37,2013-07-14 00:30:00,
2013-07-13 19:35:00,97.6,58.0,29.78,SSE,154,2.0,9.0,27,0.00,CLR,,0.00,WeatherDisplay:10.37,2013-07-14 00:35:00,
2013-07-13 19:40:00,97.5,57.9,29.78,SSE,162,6.0,12.0,27,0.00,CLR,,0.00,WeatherDisplay:10.37,2013-07-14 00:40:00,
2013-07-13 19:45:00,97.1,58.6,29.78,South,169,3.0,9.0,28,0.00,CLR,,0.00,WeatherDisplay:10.37,2013-07-14 00:45:00,
2013-07-13 19:50:00,96.8,58.3,29.78,South,171,1.0,7.0,28,0.00,CLR,,0.00,WeatherDisplay:10.37,2013-07-14 00:50:00,
2013-07-13 19:55:00,96.5,58.1,29.78,South,171,2.0,4.0,28,0.00,CLR,,0.00,WeatherDisplay:10.37,2013-07-14 00:55:00,
2013-07-13 20:00:00,96.2,58.8,29.78,South,171,5.0,10.0,29,0.00,CLR,,0.00,WeatherDisplay:10.37,2013-07-14 01:00:00,
2013-07-13 20:05:00,95.9,58.5,29.78,South,171,2.0,6.0,29,0.00,CLR,,0.00,WeatherDisplay:10.37,2013-07-14 01:05:00,
2013-07-13 20:10:00,95.6,59.2,29.78,South,171,0.0,3.0,30,0.00,CLR,,0.00,WeatherDisplay:10.37,2013-07-14 01:10:00,
2013-07-13 20:15:00,95.3,59.0,29.78,South,171,0.0,0.0,30,0.00,CLR,,0.00,WeatherDisplay:10.37,2013-07-14 01:15:00,
2013-07-13 20:20:00,95.1,59.7,29.78,South,171,0.0,1.0,31,0.00,CLR,,0.00,WeatherDisplay:10.37,2013-07-14 01:20:00,
2013-07-13 20:25:00,94.8,59.5,29.78,South,171,0.0,1.0,31,0.00,CLR,,0.00,WeatherDisplay:10.37,2013-07-14 01:25:00,
2013-07-13 20:30:00,94.5,59.2,29.78,South,171,0.0,0.0,31,0.00,CLR,,0.00,WeatherDisplay:10.37,2013-07-14 01:30:00,
2013-07-13 20:35:00,94.2,59.8,29.78,South,171,0.0,0.0,32,0.00,CLR,,0.00,WeatherDisplay:10.37,2013-07-14 01:35:00,
2013-07-13 20:40:00,93.9,60.4,29.78,South,171,0.0,0.0,33,0.00,CLR,,0.00,WeatherDisplay:10.37,2013-07-14 01:40:00,
2013-07-13 20:45:00,93.4,60.0,29.78,South,171,0.0,0.0,33,0.00,CLR,,0.00,WeatherDisplay:10.37,2013-07-14 01:45:00,
2013-07-13 20:50:00,92.9,60.4,29.78,South,171,0.0,0.0,34,0.00,CLR,,0.00,WeatherDisplay:10.37,2013-07-14 01:50:00,
2013-07-13 20:55:00,92.3,59.9,29.78,South,171,0.0,0.0,34,0.00,CLR,,0.00,WeatherDisplay:10.37,2013-07-14 01:55:00,